Location: Bartshausen
(51.8454°N, 9.8167°E)
Time: 23:22:40
(UTC+00:00)

Cosmos 2251 Rocket - Pass Details

Date: 08 November 2025
Orbit: 760 x 788 km, 74.0° (Epoch: 04 December)

Event Time Altitude Azimuth Distance (km) Brightness Sun altitude
Exits shadow 05:11:28 - 331° (NNW) 3,001 6.2 -12.0°
Reaches altitude 10° 05:13:09 10° 329° (NNW) 2,356 5.6 -11.7°
Maximum altitude 05:18:25 58° 251° (WSW) 915 3.6 -10.9°
Drops below altitude 10° 05:23:39 10° 174° (S) 2,347 6.3 -10.1°
Sets 05:26:03 0° 170° (S) 3,271 7.1 -9.8°
